Regional Weather Roundup
Issued by NWS

Home | Current Version | Previous Version | Graphics & Text | Print | Product List | Glossary On
Versions: 1 2 3 4 5 6 7 8 9 10 11 12 13 14 15 16 17 18 19 20 21 22 23 24 25 26 27 28 29 30 31 32 33 34 35 36 37 38 39 40 41 42 43 44 45 46 47 48 49 50
000
ASUS43 KIND 220209
RWRIN

WEATHER ROUNDUP FOR INDIANA
NATIONAL WEATHER SERVICE INDIANAPOLIS IN
900 PM EST WED FEB 21 2018

NOTE: "FAIR" INDICATES FEW OR NO CLOUDS BELOW 12,000 FEET WITH NO
SIGNIFICANT WEATHER AND/OR OBSTRUCTIONS TO VISIBILITY.

* - STATION DOES NOT REPORT WEATHER SUCH AS PRECIPITATION OR FOG.

+ - STATION NOT QUALITY CONTROLLED BY THE NATIONAL WEATHER SERVICE.
    USE DATA WITH CAUTION...ESPECIALLY DEWPOINT AND RELATIVE
    HUMIDITY OBSERVATIONS.

INZ001>003-010>013-019-020-220300-
NORTHWEST INDIANA

CITY           SKY/WX    TMP DP  RH WIND       PRES   REMARKS
LA PORTE +     FAIR      29  26  88 N9        30.62R WCI  20
MICHIGAN CITY+ FAIR      30  27  86 N6        30.63R WCI  24
MONTICELLO +   CLOUDY    33  30  88 NE7       30.58R WCI  27
RENSSELAER +   FAIR      32  27  80 N13       30.60R WCI  22
VALPARAISO     FAIR      31  25  78 NE9       30.61R WCI  23

$$

LMZ046-743>745-220300-
SOUTHERN LAKE MICHIGAN

STATION/POSITION TIME  TEMP    WIND        PRES    WAVE
                       AIR SEA DIR/SP/G            HT
                 (UTC) (F)     (DEG/KT/KT) (MB)    (FT)
MICHIGAN CITY    0140   30      10/ 17/ 18   N/A

$$

INZ004-005-014>016-021>024-220300-
NORTH CENTRAL INDIANA

CITY           SKY/WX    TMP DP  RH WIND       PRES   REMARKS
ELKHART        FAIR      32  28  86 CALM      30.61R
GOSHEN         FAIR      33  29  85 VRB3      30.58S
LOGANSPORT +   MOCLDY    34  32  93 N9        30.58R WCI  26
PERU/GRISSOM   CLOUDY    36  36 100 N10       30.56R WCI  28
ROCHESTER +    FAIR      36  32  87 NE6       30.58R WCI  31
SOUTH BEND     FAIR      29  26  89 N6        30.61R WCI  23
WARSAW +       FAIR      32  30  93 N8        30.58R WCI  25

$$

INZ006>009-017-018-025>027-220300-
NORTHEAST INDIANA

CITY           SKY/WX    TMP DP  RH WIND       PRES   REMARKS
AUBURN +       FAIR      34  32  93 N6        30.57F WCI  29
FORT WAYNE     CLOUDY    37  33  85 NE9       30.56S WCI  30
HUNTINGTON +   FAIR      35  32  89 N6        30.55S WCI  30
KENDALLVILLE + FAIR      34  31  91 NE6       30.58R WCI  29

$$

INZ028-029-035-036-043>045-051>053-220300-
WEST CENTRAL INDIANA

CITY           SKY/WX    TMP DP  RH WIND       PRES   REMARKS
CRAWFORDSVL +  CLOUDY    33  33 100 N10         N/A  WCI  25
GREENCASTLE +  CLOUDY    36  32  87 N9        30.52R WCI  29
LAFAYETTE      CLOUDY    34  31  88 NE10      30.57R WCI  26
TERRE HAUTE    MIX PCPN  36  35  96 N10       30.52R FOG     WCI  28

$$

INZ030>032-037>040-046>048-054>057-064-065-220300-
CENTRAL INDIANA

CITY           SKY/WX    TMP DP  RH WIND       PRES   REMARKS
INDIANAPOLIS   LGT RAIN  37  35  92 N10       30.50R WCI  30
-EAGLE CREEK   LGT RAIN  38  34  85 N13       30.50R WCI  30
KOKOMO +       CLOUDY    36  33  89 N12       30.57R WCI  28
MARION +       CLOUDY    36  33  88 NE10      30.53F FOG     WCI  29
MT COMFORT *+  CLOUDY    37  37 100 NE10      30.48F WCI  30
SHELBYVILLE    LGT RAIN  40  36  86 NE13      30.47F WCI  32
ZIONSVILLE +   CLOUDY    35  33  94 N12       30.52R WCI  27

$$

INZ033-034-041-042-049-050-058-059-220300-
EAST CENTRAL INDIANA

CITY           SKY/WX    TMP DP  RH WIND       PRES   REMARKS
MUNCIE         LGT RAIN  40  35  83 NE14      30.50F WCI  32
RICHMOND +     LGT RAIN  37  37 100 NE16      30.48F WCI  28

$$

INZ060-061-067>069-081>083-085>088-220300-
SOUTHWEST INDIANA

CITY           SKY/WX    TMP DP  RH WIND       PRES   REMARKS
EVANSVILLE     LGT RAIN  42  41  96 N6        30.43S
HUNTINGBURG +  LGT RAIN  42  40  92 E5        30.41F
WASHINGTON +   LGT RAIN  40  38  94 N8        30.46R WCI  34

$$

INZ062-063-066-070>080-084-089>092-220300-
SOUTH CENTRAL AND SOUTHEAST INDIANA

CITY           SKY/WX    TMP DP  RH WIND       PRES   REMARKS
BATESVILLE +   CLOUDY    39  39 100 MISG      30.47F FOG
BEDFORD +      LGT RAIN  39  37  93 E8        30.42F WCI  34
BLOOMINGTON    LGT RAIN  39  37  92 NE9       30.45S WCI  33
FRENCH LICK *+ CLOUDY    37 N/A N/A NE16      30.41F WCI  28
MADISON *+     CLOUDY    43  39  87 NE7       30.49R
NORTH VERNON + LGT RAIN  39  37  93 NE15      30.46F WCI  31
SEYMOUR +      LGT RAIN  41  39  93 NE8       30.46F

$$





USA.gov is the U.S. government's official web portal to all federal, state and local government web resources and services.